1497625200.61,48754,18.75,73772.8,4.29,3.45,3.49,0,*74
1497625201.84,48755,18.75,73778.5,4.29,3.45,3.45,0,*79
1497625203.07,48756,18.75,73778.5,4.27,3.41,3.45,0,*70
1497625204.27,48757,18.75,73772.0,4.27,3.67,3.59,0,*78
1497625205.45,48758,18.75,73778.3,4.29,3.81,3.81,0,*74
1497625206.64,48759,18.75,73774.8,4.29,3.85,3.93,0,*72
1497625207.84,48760,18.75,73770.8,4.29,3.59,3.67,0,*72
1497625209.02,48761,18.75,73772.0,4.29,3.59,3.59,0,*7E
1497625210.22,48762,18.75,73776.0,4.29,3.55,3.49,0,*70
1497625211.47,48763,18.75,73774.3,4.31,3.53,3.53,0,*75
1497625212.7,48764,18.75,73778.0,4.29,3.45,3.33,0,*7A
1497625213.87,48765,18.75,73780.0,4.29,3.55,3.55,0,*7A
1497625215.05,48766,18.75,73778.8,4.29,3.55,3.59,0,*75
1497625216.28,48767,18.75,73784.3,4.29,3.45,3.45,0,*78
1497625217.51,48768,18.75,73788.5,4.29,3.33,3.33,0,*77
1497625218.75,48769,18.75,73790.8,4.29,3.15,3.03,0,*71
1497625219.95,48770,18.75,73794.3,4.31,2.65,2.35,0,*72
1497625221.19,48771,18.75,73794.8,4.29,1.97,1.55,0,*71
1497625222.38,48772,18.75,73802.0,4.27,-0.27,-0.29,0,*7C
1497625223.61,48773,18.75,73792.0,4.27,-1.13,-1.01,0,*70
1497625224.82,48774,18.75,73776.3,4.23,-0.23,-0.11,0,*71
1497625226.03,48775,18.75,73742.3,4.19,0.47,0.51,0,*7F
1497625227.25,48776,18.75,73734.0,4.19,0.75,0.83,0,*72
1497625228.47,48777,18.75,73732.0,4.13,1.33,1.41,0,*75
1497625229.7,48778,18.75,73734.3,4.13,1.09,1.05,0,*73
1497625230.93,48779,18.75,73736.0,4.13,1.75,1.63,0,*79
1497625232.13,48780,18.75,73762.0,4.13,1.75,1.75,0,*78
1497625233.39,48781,18.75,73764.0,4.17,1.97,2.09,0,*79
1497625234.64,48782,18.75,73766.0,4.13,1.89,1.93,0,*71
1497625235.88,48783,18.75,73768.8,4.13,1.51,1.43,0,*78
1497625237.08,48784,18.75,73778.8,4.13,-0.03,0.05,0,*57
1497625238.28,48785,18.75,73772.0,4.11,-0.23,-0.29,0,*75
1497625239.47,48786,18.75,73762.8,4.09,-0.61,-0.61,0,*75
1497625240.69,48787,18.75,73762.5,4.07,0.21,0.37,0,*7D
1497625241.87,48788,18.75,73760.8,4.05,0.01,0.01,0,*77
1497625243.14,48789,18.75,73756.5,4.05,1.21,1.21,0,*76
1497625244.39,48790,18.75,73754.5,4.05,1.93,1.93,0,*7E
1497625245.64,48791,18.75,73748.5,4.05,2.09,2.09,0,*7F
1497625246.88,48792,18.75,73758.8,4.05,2.27,2.17,0,*7F
1497625248.14,48793,18.75,73758.5,4.05,2.17,1.97,0,*76
1497625249.39,48794,18.75,73760.8,4.05,1.93,1.85,0,*7D
1497625250.62,48795,18.75,73760.8,4.07,1.93,1.97,0,*7D
1497625251.85,48796,18.75,73762.3,4.07,1.85,1.97,0,*79
1497625253.1,48797,18.75,73766.3,4.09,2.09,2.21,0,*7F
1497625254.35,48798,18.75,73760.3,4.09,2.01,2.25,0,*7C
1497625255.61,48799,18.75,73768.8,4.09,1.97,2.21,0,*75
1497625256.86,48800,18.75,73766.3,4.09,1.97,2.09,0,*70
1497625258.11,48801,18.75,73768.8,4.09,1.59,1.63,0,*7C
1497625259.36,48802,18.75,73766.8,4.09,1.59,1.59,0,*76
1497625260.61,48803,18.75,73764.3,4.09,1.51,1.59,0,*7F
1497625261.81,48804,18.75,73764.5,4.07,1.67,1.79,0,*71
1497625263.01,48805,18.75,73766.3,4.07,1.67,1.79,0,*70
1497625264.23,48806,18.75,73764.0,4.07,1.93,1.93,0,*7C
1497625265.46,48807,18.69,73762.0,4.05,1.83,1.67,0,*75
1497625266.69,48808,18.75,73764.3,4.05,1.01,0.87,0,*4F
1497625267.93,48809,18.75,73756.5,4.05,0.41,0.37,0,*70
1497625269.17,48810,18.75,73756.0,4.01,0.55,0.67,0,*7C
1497625270.43,48811,18.75,73752.8,4.01,1.17,1.29,0,*71
1497625271.68,48812,18.75,73752.5,4.01,1.47,1.55,0,*7C
1497625272.89,48813,18.75,73754.8,4.01,1.75,1.79,0,*72
1497625274.1,48814,18.75,73760.0,4.01,1.75,1.75,0,*79
1497625275.31,48815,18.75,73756.0,3.99,1.79,1.85,0,*7D
1497625276.49,48816,18.75,73752.8,3.99,1.75,1.75,0,*7D
1497625277.72,48817,18.75,73750.5,3.99,1.89,2.01,0,*7F
1497625278.95,48818,18.75,73756.3,3.99,2.13,2.13,0,*73
1497625280.13,48819,18.75,73758.8,3.99,2.31,2.31,0,*72
1497625281.37,48820,18.75,73758.5,3.99,2.13,2.13,0,*78
1497625282.6,48821,18.75,73758.3,3.99,2.01,2.09,0,*71
1497625283.78,48822,18.75,73756.3,3.99,2.31,2.35,0,*7E
1497625285.01,48823,18.75,73756.8,3.99,2.47,2.47,0,*7B
1497625286.24,48824,18.75,73756.0,3.97,2.55,2.65,0,*71
1497625287.47,48825,18.75,73756.3,3.99,2.69,2.73,0,*76
1497625288.71,48826,18.75,73752.5,3.99,2.73,2.81,0,*73
1497625289.91,48827,18.75,73752.5,3.99,2.91,2.85,0,*7A
1497625291.12,48828,18.75,73754.3,4.01,2.61,2.61,0,*76
1497625292.33,48829,18.75,73748.5,4.01,2.61,2.61,0,*77
1497625293.54,48830,18.75,73758.5,3.99,2.61,2.69,0,*71
1497625294.8,48831,18.75,73766.5,4.01,2.81,2.81,0,*7E
1497625295.97,48832,18.75,73766.5,4.03,2.99,2.95,0,*73
1497625297.24,48833,18.75,73768.8,4.01,3.15,3.11,0,*78
1497625298.42,48834,18.75,73768.0,4.03,2.65,2.65,0,*79
1497625299.67,48835,18.75,73778.0,4.05,2.89,2.89,0,*7E
1497625300.9,48836,18.75,73774.8,4.03,2.69,2.69,0,*7B
1497625302.16,48837,18.75,73768.3,4.01,2.43,2.51,0,*7B
1497625303.41,48838,18.75,73766.8,4.05,2.81,2.69,0,*75
1497625304.64,48839,18.75,73774.8,4.03,2.13,2.01,0,*77
1497625305.81,48840,18.75,73768.8,4.03,1.79,1.79,0,*7A
1497625307.02,48841,18.75,73764.8,4.03,1.29,1.41,0,*75
1497625308.28,48842,18.75,73764.3,4.01,1.97,2.13,0,*75
1497625309.5,48843,18.75,73768.3,4.03,2.55,2.77,0,*79
1497625310.76,48844,18.75,73764.5,4.01,3.03,3.03,0,*7C
1497625311.97,48845,18.75,73764.8,4.03,3.11,2.99,0,*7E
1497625313.19,48846,18.75,73764.5,4.01,2.85,2.91,0,*7B
1497625314.37,48847,18.75,73770.8,4.03,2.95,2.99,0,*71
1497625315.57,48848,18.75,73772.8,4.05,2.99,2.91,0,*7C
1497625316.83,48849,18.75,73772.0,4.05,2.81,2.81,0,*75
1497625318.09,48850,18.75,73774.5,4.05,2.43,2.51,0,*7E
1497625319.36,48851,18.75,73776.0,4.05,2.51,2.51,0,*7C
1497625320.56,48852,18.75,73780.3,4.03,2.99,3.11,0,*78
1497625321.75,48853,18.75,73774.0,4.03,2.89,2.95,0,*75
1497625322.98,48854,18.75,73770.0,4.03,2.89,2.89,0,*7F
1497625324.2,48855,18.75,73772.5,4.03,3.23,3.23,0,*7E
1497625325.44,48856,18.75,73768.3,4.05,3.25,3.33,0,*7C
1497625326.69,48857,18.75,73772.5,4.05,3.33,3.33,0,*7A
1497625327.87,48858,18.75,73782.5,4.03,3.29,3.29,0,*73
1497625329.13,48859,18.69,73774.3,4.05,3.23,3.23,0,*74
1497625330.33,48860,18.75,73772.0,4.05,2.99,2.99,0,*7E
1497625331.56,48861,18.75,73776.8,4.05,2.99,3.03,0,*7D
1497625332.82,48862,18.75,73774.8,4.05,3.23,3.23,0,*7C
1497625334.08,48863,18.75,73774.0,4.05,3.15,3.11,0,*79
1497625335.31,48864,18.75,73766.3,4.07,3.03,3.03,0,*78
1497625336.55,48865,18.75,73762.8,4.07,3.11,3.03,0,*7A
1497625337.81,48866,18.75,73764.8,4.05,3.15,3.23,0,*7D
1497625339.06,48867,18.75,73768.5,4.05,3.03,3.11,0,*7A
1497625340.27,48868,18.75,73774.5,4.07,2.81,2.91,0,*75
1497625341.5,48869,18.75,73778.8,4.05,2.69,2.65,0,*7B
1497625342.73,48870,18.75,73774.0,4.07,2.51,2.55,0,*79
1497625343.96,48871,18.75,73776.5,4.05,2.65,2.59,0,*71
1497625345.17,48872,18.69,73778.3,4.05,2.65,2.65,0,*7D
1497625346.36,48873,18.75,73782.0,4.03,2.61,2.61,0,*7A
1497625347.56,48874,18.75,73780.0,4.03,2.77,2.61,0,*7A
1497625348.79,48875,18.75,73778.8,4.03,2.51,2.47,0,*7B
1497625350.04,48876,18.75,73776.0,4.01,2.43,2.47,0,*79
1497625351.28,48877,18.75,73776.5,4.03,2.39,2.51,0,*70
1497625352.5,48878,18.75,73782.0,4.03,2.01,2.25,0,*77
1497625353.76,48879,18.75,73776.8,4.01,2.01,2.25,0,*74
1497625355.01,48880,18.75,73776.5,4.01,2.21,2.13,0,*75
1497625356.24,48881,18.75,73778.0,4.01,1.75,1.71,0,*71
1497625357.5,48882,18.75,73774.3,4.01,1.17,1.17,0,*76
1497625358.7,48883,18.75,73774.8,3.99,1.71,1.75,0,*75
1497625359.96,48884,18.75,73774.3,3.97,2.43,2.39,0,*75
1497625361.2,48885,18.75,73778.0,3.97,1.93,1.83,0,*78
1497625362.45,48886,18.75,73782.8,3.97,1.71,1.71,0,*7A
1497625363.69,48887,18.75,73776.5,3.97,2.21,2.21,0,*7B
1497625364.95,48888,18.75,73774.8,3.97,1.59,1.55,0,*78
1497625366.17,48889,18.75,73778.8,3.95,1.85,1.83,0,*71
1497625367.43,48890,18.75,73776.5,3.95,1.33,1.13,0,*7D
1497625368.63,48891,18.75,73772.5,3.93,0.67,0.67,0,*78
1497625369.87,48892,18.75,73770.5,3.95,0.71,0.59,0,*77
1497625371.08,48893,18.75,73768.5,3.93,0.83,0.83,0,*7A
1497625372.26,48894,18.75,73760.3,3.93,0.95,0.97,0,*7F
1497625373.49,48895,18.75,73762.5,3.89,0.55,0.55,0,*77
1497625374.7,48896,18.75,73752.8,3.89,0.51,0.51,0,*74
1497625375.94,48897,18.75,73752.8,3.87,0.21,0.17,0,*7E
1497625377.12,48898,18.75,73762.3,3.87,0.09,0.05,0,*78
1497625378.33,48899,18.75,73756.0,3.83,-0.03,-0.11,0,*42
1497625379.54,48900,18.75,73760.5,3.85,0.41,0.37,0,*77
1497625380.74,48901,18.75,73758.0,3.81,0.13,0.13,0,*73
1497625381.99,48902,18.75,73758.3,3.79,-0.23,-0.23,0,*77
1497625383.17,48903,18.75,73758.3,3.77,-0.07,-0.11,0,*4F
1497625384.38,48904,18.75,73754.5,3.77,0.17,0.17,0,*7F
1497625385.61,48905,18.75,73752.8,3.75,0.41,0.29,0,*72
1497625386.83,48906,18.75,73758.8,3.73,0.59,0.51,0,*71
1497625388.04,48907,18.75,73754.8,3.71,0.43,0.37,0,*79
1497625389.28,48908,18.75,73752.3,3.71,0.47,0.47,0,*75
1497625390.53,48909,18.75,73754.3,3.67,0.79,0.71,0,*7B
1497625391.75,48910,18.75,73746.8,3.67,0.95,1.05,0,*43
1497625393.01,48911,18.75,73746.5,3.67,1.13,1.25,0,*7F
1497625394.21,48912,18.75,73742.0,3.67,1.41,1.41,0,*79
1497625395.43,48913,18.75,73742.8,3.67,1.41,1.43,0,*7A
1497625396.66,48914,18.75,73746.0,3.67,1.67,1.75,0,*7C
1497625397.89,48915,18.75,73744.0,3.67,1.63,1.75,0,*79
1497625399.14,48916,18.75,73744.0,3.67,1.51,1.51,0,*7D
1497625400.36,48917,18.75,73744.3,3.65,0.41,0.33,0,*7B
1497625401.55,48918,18.75,73740.8,3.67,1.41,1.41,0,*73
1497625402.78,48919,18.75,73742.0,3.65,1.51,1.51,0,*70
1497625403.95,48920,18.75,73740.3,3.65,1.41,1.41,0,*7A
1497625405.19,48921,18.75,73740.5,3.65,1.17,1.13,0,*7F
1497625406.43,48922,18.75,73742.3,3.65,1.37,1.29,0,*77
1497625407.69,48923,18.75,73740.0,3.61,1.37,1.37,0,*7D
1497625408.92,48924,18.75,73740.3,3.63,1.25,1.21,0,*7C
1497625410.16,48925,18.75,73744.5,3.63,1.37,1.33,0,*7D
1497625411.39,48926,18.75,73742.8,3.61,0.67,0.67,0,*78
1497625412.63,48927,18.75,73746.0,3.61,0.51,0.51,0,*79
1497625413.84,48928,18.69,73746.8,3.59,0.75,0.75,0,*7D
1497625415.05,48929,18.75,73754.0,3.57,0.43,0.41,0,*70
1497625416.27,48930,18.69,73762.8,3.59,0.71,0.83,0,*79
1497625417.44,48931,18.75,73768.0,3.59,0.01,-0.49,0,*64
1497625418.65,48932,18.69,73764.0,3.55,0.33,0.29,0,*71
1497625419.91,48933,18.69,73770.3,3.53,0.87,0.91,0,*7A
1497625421.17,48934,18.75,73772.0,3.53,1.21,1.29,0,*72
1497625422.4,48935,18.75,73774.0,3.53,1.37,1.41,0,*7A
1497625423.67,48936,18.69,73774.5,3.53,1.21,1.25,0,*7C
1497625424.93,48937,18.69,73774.8,3.53,1.21,1.29,0,*71
1497625426.16,48938,18.75,73776.5,3.51,1.09,1.13,0,*7F
1497625427.43,48939,18.75,73778.3,3.49,1.21,1.25,0,*78
1497625428.66,48940,18.75,73776.5,3.51,1.25,1.25,0,*7B
1497625429.89,48941,18.69,73776.8,3.49,1.05,1.09,0,*7F
1497625431.16,48942,18.75,73784.8,3.49,1.21,1.21,0,*70
1497625432.39,48943,18.75,73782.3,3.51,1.25,1.29,0,*74
1497625433.66,48944,18.75,73780.8,3.49,1.21,1.25,0,*72
1497625434.9,48945,18.75,73780.3,3.49,0.95,0.95,0,*77
1497625436.14,48946,18.75,73778.8,3.49,0.75,0.75,0,*74
1497625437.38,48947,18.75,73778.5,3.45,0.67,0.59,0,*74
1497625438.62,48948,18.75,73776.3,3.45,0.71,0.71,0,*76
1497625439.87,48949,18.75,73782.0,3.45,0.59,0.55,0,*7B
1497625441.06,48950,18.75,73788.0,3.43,0.21,0.09,0,*43
1497625442.28,48951,18.75,73788.8,3.43,0.21,0.21,0,*78
1497625443.5,48952,18.75,73790.5,3.43,0.55,0.59,0,*77
1497625444.68,48953,18.75,73786.3,3.43,0.09,0.33,0,*43
1497625445.87,48954,18.75,73778.0,3.39,0.43,0.51,0,*73
1497625447.08,48955,18.69,73776.5,3.39,0.25,0.25,0,*71
1497625448.29,48956,18.75,73774.5,3.39,0.33,0.41,0,*77
1497625449.54,48957,18.69,73768.0,3.37,0.83,0.87,0,*79
1497625450.75,48958,18.75,73770.8,3.35,-0.23,-0.15,0,*75
1497625451.98,48959,18.69,73776.5,3.37,-0.37,-0.27,0,*72
1497625453.18,48960,18.75,73772.0,3.35,-0.23,-0.03,0,*49
1497625454.36,48961,18.69,73760.0,3.35,-0.11,-0.03,0,*49
1497625455.57,48962,18.75,73750.5,3.31,0.13,0.01,0,*4E
1497625456.78,48963,18.75,73740.8,3.31,0.13,0.05,0,*4B
1497625458.01,48964,18.75,73736.3,3.31,-0.11,-0.23,0,*7A
1497625459.26,48965,18.69,73712.3,3.31,-0.23,-0.23,0,*7A
1497625460.48,48966,18.75,73716.3,3.27,1.01,1.09,0,*76
1497625461.68,48967,18.69,73708.0,3.29,1.41,1.47,0,*77
1497625462.91,48968,18.69,73700.0,3.29,1.13,1.17,0,*7A
1497625464.15,48969,18.75,73700.3,3.29,1.37,1.47,0,*78
1497625465.39,48970,18.75,73698.8,3.29,1.37,1.37,0,*77
1497625466.62,48971,18.75,73698.0,3.29,1.17,1.13,0,*72
1497625467.85,48972,18.75,73708.8,3.29,0.79,0.91,0,*73
1497625469.08,48973,18.75,73700.3,3.29,0.91,0.91,0,*74
1497625470.26,48974,18.75,73704.5,3.29,1.05,1.05,0,*73
1497625471.49,48975,18.75,73698.8,3.29,1.13,1.17,0,*76
1497625472.71,48976,18.75,73700.5,3.29,0.79,0.79,0,*71
1497625473.89,48977,18.69,73706.8,3.29,1.01,0.97,0,*4E
1497625475.11,48978,18.75,73712.3,3.29,0.87,0.79,0,*7E
1497625476.35,48979,18.75,73718.3,3.27,0.83,0.83,0,*70
1497625477.55,48980,18.75,73716.5,3.27,1.01,1.01,0,*76
1497625478.8,48981,18.75,73720.8,3.27,1.21,1.25,0,*73
1497625480.07,48982,18.75,73720.5,3.19,-20.83,-22.21,0,*73
1497625481.35,48983,18.75,73724.8,2.97,-11.85,-11.67,0,*73
1497625482.57,48984,18.75,73726.0,2.89,-4.29,-4.17,0,*7A
1497625483.75,48985,18.69,73724.3,2.87,0.37,0.43,0,*7B
1497625484.99,48986,18.69,73730.3,2.87,1.21,1.33,0,*78
1497625486.22,48987,18.75,73734.5,2.91,1.71,1.71,0,*7D
1497625487.47,48988,18.75,73740.5,2.93,1.85,1.85,0,*70
1497625488.69,48989,18.75,73746.5,2.95,1.85,1.89,0,*7B
1497625489.92,48990,18.75,73746.5,2.97,1.83,1.93,0,*7C
1497625491.12,48991,18.69,73746.0,3.01,1.79,1.93,0,*76
1497625492.34,48992,18.69,73748.0,3.05,1.89,2.01,0,*76
1497625493.57,48993,18.75,73750.5,3.07,1.75,1.85,0,*79
1497625494.82,48994,18.69,73750.0,3.07,1.63,1.67,0,*75
1497625496.05,48995,18.75,73750.5,3.07,1.63,1.79,0,*7B
1497625497.27,48996,18.69,73754.5,3.09,1.71,1.93,0,*71
1497625498.47,48997,18.69,73748.3,3.09,1.79,1.93,0,*78
1497625499.71,48998,18.75,73754.5,3.11,1.71,1.89,0,*7D
1497625500.93,48999,18.69,73754.8,3.11,1.79,1.89,0,*74
1497625502.18,49000,18.75,73756.5,3.11,1.71,1.71,0,*73
1497625503.4,49001,18.69,73754.3,3.11,1.71,1.79,0,*7A
1497625504.63,49002,18.69,73750.5,3.15,1.71,1.75,0,*71
1497625505.85,49003,18.75,73750.3,3.13,1.43,1.55,0,*75
1497625507.07,49004,18.75,73746.5,3.13,1.43,1.47,0,*71
1497625508.31,49005,18.75,73750.5,3.15,1.71,1.71,0,*72
1497625509.53,49006,18.69,73740.0,3.15,1.63,1.75,0,*76
1497625510.76,49007,18.75,73742.5,3.15,1.71,1.83,0,*7D
1497625511.99,49008,18.75,73746.3,3.13,1.85,1.85,0,*79
1497625513.21,49009,18.75,73748.8,3.13,1.93,1.97,0,*7C
1497625514.46,49010,18.75,73748.3,3.15,1.93,2.05,0,*7A
1497625515.66,49011,18.69,73748.0,3.13,1.75,1.85,0,*7E
1497625516.86,49012,18.69,73742.0,3.15,1.75,1.75,0,*74
1497625518.09,49013,18.75,73742.0,3.15,1.63,1.75,0,*72
1497625519.31,49014,18.69,73742.8,3.15,1.01,1.13,0,*71
1497625520.51,49015,18.75,73750.5,3.13,1.71,1.83,0,*78
1497625521.71,49016,18.75,73740.5,3.13,1.83,1.93,0,*77
1497625522.93,49017,18.75,73738.8,3.15,1.71,1.75,0,*75
1497625524.14,49018,18.69,73728.5,3.13,1.71,1.75,0,*7C
1497625525.34,49019,18.69,73734.8,3.13,1.83,1.85,0,*7F
1497625526.58,49020,18.69,73730.3,3.15,1.93,1.97,0,*71
1497625527.81,49021,18.75,73744.5,3.13,2.05,2.17,0,*71
1497625529.01,49022,18.69,73752.5,3.15,1.83,1.83,0,*77
1497625530.25,49023,18.69,73752.5,3.15,1.63,1.55,0,*73
1497625531.5,49024,18.75,73756.8,3.15,1.47,1.55,0,*72
1497625532.76,49025,18.69,73758.5,3.15,1.21,1.33,0,*73
1497625533.98,49026,18.69,73740.3,3.13,0.87,1.09,0,*42
1497625535.22,49027,18.69,73746.5,3.15,0.63,0.91,0,*7F
1497625536.43,49028,18.75,73748.8,3.13,0.59,0.83,0,*7C
1497625537.65,49029,18.75,73746.5,3.13,0.83,1.13,0,*42
1497625538.86,49030,18.75,73748.8,3.13,0.37,0.71,0,*70
1497625540.08,49031,18.69,73744.8,3.13,-0.23,0.25,0,*58
1497625541.27,49032,18.69,73748.0,3.13,-0.27,0.01,0,*69
1497625542.47,49033,18.75,73752.3,3.11,-0.53,-0.29,0,*7E
1497625543.66,49034,18.69,73752.8,3.09,-0.73,-0.49,0,*74
1497625544.84,49035,18.75,73758.5,3.05,-0.57,-0.33,0,*72
1497625546.05,49036,18.75,73762.0,3.07,-0.53,-0.33,0,*77
1497625547.23,49037,18.69,73766.3,3.05,-0.45,-0.07,0,*44
1497625548.46,49038,18.69,73768.0,3.01,-1.13,-0.85,0,*47
1497625549.65,49039,18.69,73764.3,3.01,-0.73,-0.53,0,*7A
1497625550.87,49040,18.69,73760.3,2.95,-0.93,-0.89,0,*71
1497625552.04,49041,18.69,73758.5,2.95,-0.15,0.09,0,*6B
1497625553.27,49042,18.75,73754.5,2.93,0.29,0.51,0,*71
1497625554.51,49043,18.69,73732.8,2.93,0.33,0.55,0,*7F
1497625555.74,49044,18.75,73742.3,2.93,0.63,0.79,0,*73
1497625556.98,49045,18.75,73738.3,2.89,0.13,0.25,0,*77
1497625558.19,49046,18.69,73726.0,2.91,0.13,0.37,0,*7E
1497625559.43,49047,18.69,73728.8,2.89,0.41,0.59,0,*79
1497625560.65,49048,18.69,73724.3,2.91,0.13,0.37,0,*70
1497625561.89,49049,18.69,73710.3,2.89,0.55,0.63,0,*7B
1497625563.13,49050,18.69,73714.0,2.89,0.59,0.63,0,*7F
1497625564.38,49051,18.75,73706.8,2.89,0.63,0.83,0,*79
1497625565.59,49052,18.69,73710.5,2.87,0.63,0.71,0,*79
1497625566.8,49053,18.75,73702.5,2.87,0.59,0.71,0,*71
1497625568.02,49054,18.69,73700.8,2.89,0.33,0.43,0,*75
1497625569.25,49055,18.69,73690.3,2.89,-0.85,-0.65,0,*7D
1497625570.52,49056,18.75,73692.5,2.85,-1.05,-1.01,0,*78
1497625571.72,49057,18.69,73694.5,2.87,-0.89,-0.65,0,*7D
1497625572.9,49058,18.75,73680.5,2.83,-0.53,-0.33,0,*72
1497625574.14,49059,18.69,73694.5,2.81,-0.97,-0.81,0,*70
1497625575.41,49060,18.69,73690.0,2.81,-1.13,-1.09,0,*76
1497625576.6,49061,18.69,73686.3,2.79,-0.65,-0.41,0,*7D
1497625577.81,49062,18.69,73682.8,2.75,-0.41,-0.27,0,*74
1497625579.0,49063,18.69,73678.5,2.75,-0.65,-0.49,0,*7B
1497625580.21,49064,18.69,73674.3,2.75,-0.41,-0.27,0,*72
1497625581.43,49065,18.69,73676.5,2.75,-0.41,-0.27,0,*73
1497625582.61,49066,18.69,73670.5,2.71,-0.45,-0.41,0,*70
1497625583.81,49067,18.75,73670.0,2.71,-1.17,-1.17,0,*75
1497625584.99,49068,18.75,73670.3,2.71,-0.69,-0.81,0,*7C
1497625586.2,49069,18.69,73686.8,2.69,-0.49,-0.45,0,*7E
1497625587.43,49070,18.69,73690.5,2.67,-0.23,-0.11,0,*75
1497625588.63,49071,18.69,73698.8,2.67,-0.19,-0.07,0,*4A
1497625589.86,49072,18.69,73702.8,2.67,-0.23,-0.07,0,*40
1497625591.06,49073,18.75,73702.8,2.67,-0.41,-0.29,0,*79
1497625592.28,49074,18.69,73692.5,2.67,-0.07,0.17,0,*6C
1497625593.51,49075,18.75,73696.3,2.67,0.25,0.41,0,*73
1497625594.75,49076,18.69,73690.3,2.67,0.25,0.25,0,*72
1497625595.96,49077,18.75,73676.8,2.65,0.13,0.21,0,*70
1497625597.19,49078,18.75,73684.3,2.65,-0.27,-0.23,0,*7A
1497625598.39,49079,18.75,73688.0,2.63,-0.19,-0.03,0,*42
1497625599.6,49080,18.75,73692.8,2.65,-0.27,-0.11,0,*7C
1497625600.81,49081,18.75,73706.8,2.63,-0.03,0.17,0,*66
1497625602.02,49082,18.69,73706.0,2.65,-0.23,-0.11,0,*7A
1497625603.25,49083,18.69,73712.3,2.63,-0.49,-0.27,0,*74
1497625604.44,49084,18.69,73716.8,2.63,-0.77,-0.65,0,*78
1497625605.65,49085,18.69,73720.0,2.63,-0.81,-0.77,0,*73
1497625606.86,49086,18.75,73732.8,2.59,-0.69,-0.69,0,*70
1497625608.09,49087,18.69,73724.0,2.59,-0.41,-0.23,0,*75
1497625609.32,49088,18.69,73726.5,2.59,0.33,0.33,0,*7E
1497625610.53,49089,18.75,73726.0,2.59,0.43,0.51,0,*7C
1497625611.76,49090,18.75,73726.8,2.59,0.41,0.41,0,*77
1497625612.95,49091,18.69,73718.8,2.57,-0.11,-0.11,0,*78
1497625614.16,49092,18.69,73726.3,2.57,-0.41,-0.23,0,*7F
1497625615.33,49093,18.69,73708.8,2.57,-0.19,0.05,0,*6A
1497625616.54,49094,18.69,73704.0,2.57,0.13,0.25,0,*78
1497625617.76,49095,18.69,73694.5,2.53,0.29,0.51,0,*77
1497625618.97,49096,18.75,73688.8,2.57,0.41,0.55,0,*7A
1497625620.15,49097,18.69,73680.5,2.57,0.43,0.67,0,*78
1497625621.36,49098,18.69,73672.5,2.57,0.63,0.75,0,*76
1497625622.58,49099,18.69,73660.0,2.53,0.59,0.75,0,*7A
1497625623.79,49100,18.69,73668.8,2.57,0.63,0.67,0,*75
1497625625.0,49101,18.69,73676.3,2.57,0.51,0.51,0,*70
1497625626.22,49102,18.75,73690.0,2.53,0.47,0.47,0,*77
1497625627.44,49103,18.69,73692.3,2.53,0.51,0.59,0,*7E
1497625628.62,49104,18.69,73698.8,2.57,0.43,0.63,0,*77
1497625629.83,49105,18.69,73706.8,2.57,0.67,0.79,0,*7B
1497625631.04,49106,18.69,73704.3,2.57,0.67,0.63,0,*73
1497625632.25,49107,18.69,73690.5,2.57,0.63,0.75,0,*71
1497625633.47,49108,18.69,73706.3,2.57,0.41,0.55,0,*7C
1497625634.68,49109,18.75,73710.5,2.57,0.29,0.41,0,*76
1497625635.86,49110,18.69,73700.5,2.57,0.05,0.17,0,*43
1497625637.06,49111,18.75,73700.5,2.57,-0.23,-0.07,0,*47
1497625638.26,49112,18.69,73702.8,2.53,-0.15,0.13,0,*5D
1497625639.47,49113,18.69,73712.3,2.53,0.21,0.29,0,*7F
1497625640.69,49114,18.69,73708.3,2.53,0.25,0.29,0,*7C
1497625641.87,49115,18.69,73704.8,2.53,0.01,0.13,0,*42
1497625643.06,49116,18.69,73706.0,2.53,0.09,0.21,0,*48
1497625644.26,49117,18.69,73700.0,2.51,-0.07,-0.07,0,*71
1497625645.43,49118,18.69,73706.8,2.49,-0.15,-0.03,0,*40
1497625646.63,49119,18.69,73706.0,2.51,-0.07,0.05,0,*50
1497625647.79,49120,18.69,73706.8,2.49,-0.07,0.05,0,*53
1497625649.01,49121,18.69,73702.3,2.51,0.09,0.25,0,*4A
1497625650.2,49122,18.69,73706.3,2.49,0.33,0.43,0,*79
1497625651.41,49123,18.69,73706.3,2.51,0.43,0.55,0,*71
1497625652.62,49124,18.69,73708.8,2.49,0.59,0.83,0,*7F
1497625653.87,49125,18.69,73700.8,2.51,0.71,0.83,0,*7D
1497625655.09,49126,18.69,73706.3,2.49,0.79,0.91,0,*7C
1497625656.32,49127,18.69,73708.3,2.49,0.83,0.91,0,*78
1497625657.53,49128,18.69,73702.0,2.49,0.83,0.95,0,*73
1497625658.76,49129,18.69,73704.5,2.49,0.79,0.91,0,*73
1497625659.97,49130,18.69,73700.3,2.51,0.83,0.97,0,*71
1497625661.2,49131,18.69,73702.0,2.49,0.79,0.91,0,*7A
1497625662.44,49132,18.69,73702.3,2.51,0.71,0.83,0,*7B
1497625663.66,49133,18.69,73698.5,2.49,0.71,0.79,0,*76
1497625664.9,49134,18.69,73692.8,2.51,0.59,0.71,0,*7A
1497625666.11,49135,18.69,73686.3,2.49,0.71,0.79,0,*70
1497625667.33,49136,18.69,73692.3,2.49,0.71,0.79,0,*73
1497625668.53,49137,18.69,73698.8,2.49,0.67,0.67,0,*7A
1497625669.75,49138,18.69,73698.5,2.51,0.33,0.43,0,*7B
1497625670.93,49139,18.69,73702.8,2.49,0.43,0.47,0,*70
1497625672.14,49140,18.69,73698.3,2.49,0.67,0.67,0,*7A
1497625673.38,49141,18.69,73696.3,2.47,0.55,0.63,0,*70
1497625674.6,49142,18.69,73688.0,2.47,0.43,0.55,0,*71
1497625675.83,49143,18.69,73680.8,2.47,0.63,0.75,0,*70
1497625677.02,49144,18.69,73688.3,2.47,0.43,0.43,0,*70
1497625678.26,49145,18.69,73666.8,2.47,0.55,0.63,0,*74
1497625679.5,49146,18.69,73660.5,2.47,0.67,0.87,0,*7C
1497625680.74,49147,18.69,73666.8,2.47,0.79,0.79,0,*73
1497625681.98,49148,18.69,73658.3,2.47,0.67,0.75,0,*7F
1497625683.22,49149,18.69,73666.8,2.47,0.63,0.75,0,*7A
1497625684.46,49150,18.69,73668.8,2.47,0.55,0.67,0,*74
1497625685.69,49151,18.69,73678.5,2.47,0.67,0.79,0,*7B
1497625686.92,49152,18.69,73676.8,2.47,0.51,0.67,0,*72
1497625688.13,49153,18.69,73678.0,2.45,0.67,0.79,0,*7B
1497625689.38,49154,18.69,73684.8,2.47,0.79,0.87,0,*70
1497625690.62,49155,18.69,73680.8,2.47,0.91,0.95,0,*74
1497625691.84,49156,18.69,73680.8,2.45,0.75,0.75,0,*71
1497625693.05,49157,18.69,73684.3,2.47,0.43,0.63,0,*70
1497625694.26,49158,18.69,73672.3,2.47,0.33,0.43,0,*7A
1497625695.44,49159,18.69,73682.3,2.45,0.43,0.63,0,*7C
1497625696.67,49160,18.69,73678.8,2.45,0.79,0.91,0,*72
1497625697.89,49161,18.69,73676.0,2.45,0.55,0.75,0,*77
1497625699.13,49162,18.69,73672.8,2.47,0.41,0.55,0,*71
1497625700.35,49163,18.69,73670.5,2.45,0.29,0.63,0,*79
1497625701.54,49164,18.69,73654.3,2.47,0.05,0.43,0,*40
1497625702.75,49165,18.69,73650.3,2.45,0.33,0.51,0,*75
1497625703.97,49166,18.69,73652.0,2.45,0.21,0.41,0,*74
1497625705.15,49167,18.69,73668.0,2.45,0.13,0.43,0,*76
1497625706.36,49168,18.69,73660.5,2.47,0.01,0.51,0,*4B
1497625707.55,49169,18.69,73662.8,2.45,0.05,0.29,0,*43
1497625708.77,49170,18.69,73668.0,2.45,0.21,0.33,0,*76
1497625709.96,49171,18.69,73660.5,2.43,0.01,0.09,0,*7A
1497625711.12,49172,18.69,73660.0,2.41,0.09,0.01,0,*7B
1497625712.34,49173,18.69,73654.3,2.41,0.29,0.41,0,*7C
1497625713.58,49174,18.69,73662.3,2.43,0.29,0.29,0,*77
1497625714.83,49175,18.69,73654.5,2.43,0.25,0.37,0,*75
1497625716.04,49176,18.69,73652.5,2.41,0.25,0.41,0,*75
1497625717.26,49177,18.69,73660.8,2.41,0.25,0.41,0,*74
1497625718.48,49178,18.69,73658.8,2.41,0.29,0.47,0,*71
1497625719.7,49179,18.69,73654.5,2.41,0.37,0.51,0,*78
1497625720.92,49180,18.69,73650.8,2.41,0.13,0.37,0,*78
1497625722.13,49181,18.69,73654.3,2.39,0.09,0.25,0,*4E
1497625723.37,49182,18.69,73632.3,2.39,0.37,0.59,0,*7B
1497625724.58,49183,18.69,73632.8,2.39,0.43,0.55,0,*75
1497625725.82,49184,18.69,73648.0,2.39,0.21,0.33,0,*76
1497625727.06,49185,18.69,73632.3,2.39,0.25,0.37,0,*77
1497625728.27,49186,18.69,73638.5,2.39,0.33,0.43,0,*70
1497625729.48,49187,18.69,73652.8,2.39,0.43,0.55,0,*71